Location: Izdebno
(52.6670°N, 16.2170°E)
Time: 12:06:20
(UTC+02:00)

A-11 Canister half - Pass Details

Date: 29 February 2024
Orbit: 1525 x 1683 km, 47.3° (Epoch: 24 April)

Event Time Altitude Azimuth Distance (km) Brightness Sun altitude
Rises 17:52:58 0° 188° (S) 4,804 11.8 -3.8°
Reaches altitude 10° 17:57:16 10° 172° (S) 3,793 11.1 -4.5°
Maximum altitude 18:03:21 19° 131° (SE) 3,095 10.2 -5.4°
Drops below altitude 10° 18:09:21 10° 91° (E) 3,731 10.3 -6.3°
Enters shadow 18:10:30 - 86° (E) 3,972 10.4 -6.5°
